Find Starlink 31700

NORAD ID: 59436 Int'l Des: 2024-065 Owner: SPXS Country: US Constellation: starlink operational
LEOCIRCULAR

当前视图

正在加载3D地球...

About Starlink 31700

Starlink 31700 (NORAD 59436) is a starlink constellation satellite (v2 mini) launched Apr 7, 2024 by SPXS of US. It operates in LEO, CIRCULAR orbit with a mass of 730.00 kg.

关于 Starlink 31700

正在加载描述...

即将过境

Passes for default location (London). Set your location on the main map for personalized predictions.

高度历史

Loading altitude history...

两行轨道根数

1 59436U 24065R 26171.41668980 .00051433 00000-0 15247-2 0 9990
2 59436 53.1604 164.1649 0001423 66.0347 248.2035 15.34364152 5839
Epoch: Jun 20, 2026 • Age: 24 hours

当前状态

高度 462.1 km
速度 7.64 km/s
星下点 15.61°N, 115.95°E
发射日期 Apr 7, 2024
运行时间 2.2 years
类型 internet

技术详情

分类 Payload
质量 730.00 kg
干质量 700.00 kg
总质量 730.00 kg
长度 0.30 m
直径 4.10 m
跨度 29.00 m
形状 Box + pan
制造商 SPXS
平台类型 Starlink V2M
阶段状态 In Orbit
所有者/国家 SPXS/US

Most Searched